Location: downtown San Diego
(32.7310°N, 117.1990°W)
Time: 22:19:01
(UTC-07:00)

Helios 1B rocket - Pass Details

Date: 14 June 2018
Orbit: 575 x 585 km, 98.2° (Epoch: 15 October)

Event Time Altitude Azimuth Distance (km) Brightness Sun altitude
Rises 21:48:02 0° 25° (NNE) 2,796 6.2 -19.2°
Reaches altitude 10° 21:50:25 10° 37° (NE) 1,892 5.2 -19.6°
Enters shadow 21:53:00 26° 72° (ENE) 1,157 3.7 -20.0°
